Location: Christian Reformed Church
(43.0975°N, 93.8113°W)
Time: 19:02:03
(UTC+00:00)

Meteor 1-25 Rocket - Pass Details

Date: 18 March 2026
Orbit: 836 x 889 km, 81.2° (Epoch: 14 April)

Event Time Altitude Azimuth Distance (km) Brightness Sun altitude
Rises 09:47:39 0° 3° (N) 3,477 7.8 -28.0°
Reaches altitude 10° 09:50:52 10° 21° (NNE) 2,543 7.3 -27.5°
Maximum altitude 09:54:54 19° 65° (ENE) 1,980 6.9 -26.8°
Drops below altitude 10° 09:58:55 10° 109° (ESE) 2,548 7.2 -26.1°
Sets 10:02:07 0° 127° (SE) 3,486 7.8 -25.6°
